,,,PA_Meas_PMT16A,,PR_Meas_QMR101_102,,RH_Meas_QMH101,,SR_Meas_QMS101,,TA_Meas_QMH101,,GenWind,,GenWind,
date,time,status,PA,status,PR,status,RH,status,SR,status,TA,status,DirAvg,status,SpdAvg,
2009-11-18, 00:00:05,VALID,998.931,VALID,0,VALID,92.5397,VALID,0,VALID,23.7402,VALID,233,VALID,0.466016,
2009-11-18, 00:01:05,VALID,998.918,VALID,0,VALID,92.5778,VALID,0,VALID,23.7402,VALID,210,VALID,0.0402344,
2009-11-18, 00:02:05,VALID,998.919,VALID,0,VALID,92.6083,VALID,0.112286,VALID,23.7189,VALID,210,VALID,0,
2009-11-18, 00:03:05,VALID,998.875,VALID,0,VALID,92.6312,VALID,0,VALID,23.7207,VALID,204,VALID,0.748828,
2009-11-18, 00:04:05,VALID,998.867,VALID,0,VALID,92.6541,VALID,0,VALID,23.7207,VALID,203,VALID,0.678125,
2009-11-18, 00:05:05,VALID,998.86,VALID,0,VALID,92.7685,VALID,0,VALID,23.7597,VALID,242,VALID,0.501172,
2009-11-18, 00:06:05,VALID,998.851,VALID,0,VALID,92.7914,VALID,0,VALID,23.7793,VALID,210,VALID,0.561719,
2009-11-18, 00:07:05,VALID,998.837,VALID,0,VALID,92.7304,VALID,0,VALID,23.7597,VALID,222,VALID,0.857031,
2009-11-18, 00:08:05,VALID,998.885,VALID,0,VALID,92.7228,VALID,0,VALID,23.7597,VALID,221,VALID,0.741016,
2009-11-18, 00:09:05,VALID,998.861,VALID,0,VALID,92.7151,VALID,0,VALID,23.7597,VALID,277,VALID,1.23672,
2009-11-18, 00:10:05,VALID,998.869,VALID,0,VALID,92.6923,VALID,0,VALID,23.7793,VALID,240,VALID,1.2543,
2009-11-18, 00:11:04,VALID,998.857,VALID,0,VALID,92.6465,VALID,0,VALID,23.7793,VALID,231,VALID,1.10703,
2009-11-18, 00:12:04,VALID,998.869,VALID,0,VALID,92.6312,VALID,0,VALID,23.7793,VALID,242,VALID,0.883203,
2009-11-18, 00:13:04,VALID,998.873,VALID,0,VALID,92.6236,VALID,0,VALID,23.7793,VALID,217,VALID,0.992578,
2009-11-18, 00:14:04,VALID,998.9,VALID,0,VALID,92.6083,VALID,0,VALID,23.7793,VALID,214,VALID,0.870313,
2009-11-18, 00:15:04,VALID,998.869,VALID,0,VALID,92.5778,VALID,0,VALID,23.7597,VALID,206,VALID,0.923828,
2009-11-18, 00:16:04,VALID,998.864,VALID,0,VALID,92.6007,VALID,0,VALID,23.7811,VALID,211,VALID,0.853516,
2009-11-18, 00:17:04,VALID,998.853,VALID,0,VALID,92.616,VALID,0,VALID,23.7597,VALID,213,VALID,0.972266,
2009-11-18, 00:18:04,VALID,998.839,VALID,0,VALID,92.6465,VALID,0,VALID,23.7793,VALID,208,VALID,0.811328,
2009-11-18, 00:19:04,VALID,998.851,VALID,0,VALID,92.677,VALID,0,VALID,23.8201,VALID,217,VALID,1.10469,
2009-11-18, 00:20:04,VALID,998.828,VALID,0,VALID,92.616,VALID,0,VALID,23.8006,VALID,205,VALID,1.30781,
2009-11-18, 00:21:04,VALID,998.797,VALID,0,VALID,92.6083,VALID,0,VALID,23.8201,VALID,214,VALID,0.79375,
2009-11-18, 00:22:04,VALID,998.78,VALID,0,VALID,92.6083,VALID,0,VALID,23.8183,VALID,233,VALID,0.434375,
2009-11-18, 00:23:04,VALID,998.77,VALID,0,VALID,92.6617,VALID,0,VALID,23.8378,VALID,241,VALID,0.0921875,
2009-11-18, 00:24:04,VALID,998.761,VALID,0,VALID,92.5931,VALID,0,VALID,23.8396,VALID,195,VALID,0.854688,
2009-11-18, 00:25:04,VALID,998.76,VALID,0,VALID,92.5549,VALID,0,VALID,23.8396,VALID,163,VALID,0.542578,
2009-11-18, 00:26:04,VALID,998.767,VALID,0,VALID,92.5473,VALID,0,VALID,23.8396,VALID,159,VALID,0.286719,
2009-11-18, 00:27:04,VALID,998.749,VALID,0,VALID,92.5778,VALID,0,VALID,23.8591,VALID,269,VALID,0.689844,
2009-11-18, 00:28:04,VALID,998.749,VALID,0,VALID,92.5702,VALID,0,VALID,23.8378,VALID,242,VALID,0.437109,
2009-11-18, 00:29:04,VALID,998.688,VALID,0,VALID,92.5626,VALID,0,VALID,23.8591,VALID,238,VALID,0.767187,
2009-11-18, 00:30:04,VALID,998.707,VALID,0,VALID,92.5091,VALID,0,VALID,23.836,VALID,245,VALID,0.510547,
2009-11-18, 00:31:04,VALID,998.682,VALID,0,VALID,92.532,VALID,0,VALID,23.8573,VALID,227,VALID,0.00585938,
2009-11-18, 00:32:04,VALID,998.659,VALID,0,VALID,92.4939,VALID,0,VALID,23.836,VALID,227,VALID,0,
2009-11-18, 00:33:04,VALID,998.63,VALID,0,VALID,92.5015,VALID,0.112286,VALID,23.8573,VALID,237,VALID,0.217187,
2009-11-18, 00:34:04,VALID,998.613,VALID,0,VALID,92.5397,VALID,0,VALID,23.8573,VALID,233,VALID,0.636719,
2009-11-18, 00:35:04,VALID,998.645,VALID,0,VALID,92.5091,VALID,0,VALID,23.8573,VALID,212,VALID,0.544922,
2009-11-18, 00:36:04,VALID,998.654,VALID,0,VALID,92.5091,VALID,0,VALID,23.8768,VALID,211,VALID,0.303125,
2009-11-18, 00:37:04,VALID,998.653,VALID,0,VALID,92.5397,VALID,0.112286,VALID,23.8555,VALID,211,VALID,0.299609,
2009-11-18, 00:38:04,VALID,998.634,VALID,0,VALID,92.5549,VALID,0.112286,VALID,23.875,VALID,211,VALID,0.239063,
2009-11-18, 00:39:04,VALID,998.624,VALID,0,VALID,92.5626,VALID,0,VALID,23.8963,VALID,245,VALID,0.309375,
2009-11-18, 00:40:04,VALID,998.604,VALID,0,VALID,92.5854,VALID,0.112286,VALID,23.8945,VALID,242,VALID,0.354297,
2009-11-18, 00:41:04,VALID,998.609,VALID,0,VALID,92.5931,VALID,0.112286,VALID,23.9159,VALID,219,VALID,0.30625,
2009-11-18, 00:42:04,VALID,998.59,VALID,0,VALID,92.5702,VALID,0.112286,VALID,23.914,VALID,219,VALID,0.562891,
2009-11-18, 00:43:04,VALID,998.567,VALID,0,VALID,92.5091,VALID,0.112286,VALID,23.9159,VALID,200,VALID,0.774609,
2009-11-18, 00:44:04,VALID,998.554,VALID,0,VALID,92.4634,VALID,0,VALID,23.9159,VALID,200,VALID,0.444922,
2009-11-18, 00:45:04,VALID,998.501,VALID,0,VALID,92.471,VALID,0,VALID,23.9159,VALID,200,VALID,0.198437,
2009-11-18, 00:46:04,VALID,998.518,VALID,0,VALID,92.4863,VALID,0,VALID,23.9372,VALID,192,VALID,0.586328,
2009-11-18, 00:47:04,VALID,998.498,VALID,0,VALID,92.471,VALID,0,VALID,23.9354,VALID,193,VALID,0.303125,
2009-11-18, 00:48:04,VALID,998.522,VALID,0,VALID,92.4176,VALID,0,VALID,23.9159,VALID,231,VALID,0.9125,
2009-11-18, 00:49:04,VALID,998.471,VALID,0,VALID,92.3871,VALID,0,VALID,23.9372,VALID,216,VALID,0.618359,
2009-11-18, 00:50:04,VALID,998.461,VALID,0,VALID,92.3794,VALID,0,VALID,23.9354,VALID,213,VALID,0.338281,
2009-11-18, 00:51:04,VALID,998.436,VALID,0,VALID,92.41,VALID,0,VALID,23.9762,VALID,213,VALID,0.119531,
2009-11-18, 00:52:04,VALID,998.44,VALID,0,VALID,92.4176,VALID,0,VALID,23.9957,VALID,194,VALID,0.488281,
2009-11-18, 00:53:04,VALID,998.461,VALID,0,VALID,92.3794,VALID,0,VALID,23.9762,VALID,177,VALID,0.715234,
2009-11-18, 00:54:04,VALID,998.44,VALID,0,VALID,92.3337,VALID,0,VALID,23.9762,VALID,178,VALID,0.883594,
2009-11-18, 00:55:04,VALID,998.472,VALID,0,VALID,92.3947,VALID,0,VALID,23.9939,VALID,194,VALID,0.79375,
2009-11-18, 00:56:04,VALID,998.467,VALID,0,VALID,92.2497,VALID,0,VALID,23.9957,VALID,191,VALID,0.978906,
2009-11-18, 00:57:04,VALID,998.502,VALID,0,VALID,92.1963,VALID,0,VALID,23.9939,VALID,190,VALID,1.19609,
2009-11-18, 00:58:04,VALID,998.486,VALID,0,VALID,92.1429,VALID,0,VALID,24.0153,VALID,192,VALID,0.879297,
2009-11-18, 00:59:04,VALID,998.517,VALID,0,VALID,92.0743,VALID,0,VALID,24.0134,VALID,198,VALID,1.10586,
2009-11-18, 01:00:04,VALID,998.516,VALID,0,VALID,91.9674,VALID,0,VALID,24.0311,VALID,200,VALID,0.636328,
2009-11-18, 01:01:04,VALID,998.507,VALID,0,VALID,92.0819,VALID,0.112286,VALID,24.072,VALID,185,VALID,0.957422,
2009-11-18, 01:02:04,VALID,998.469,VALID,0,VALID,92.0514,VALID,0.112286,VALID,24.0701,VALID,198,VALID,0.751562,
2009-11-18, 01:03:04,VALID,998.456,VALID,0,VALID,92.0437,VALID,0,VALID,24.111,VALID,181,VALID,0.823047,
2009-11-18, 01:04:04,VALID,998.452,VALID,0,VALID,91.9445,VALID,0,VALID,24.0897,VALID,180,VALID,0.673828,
2009-11-18, 01:05:04,VALID,998.435,VALID,0,VALID,91.792,VALID,0.112286,VALID,24.0701,VALID,192,VALID,1.20859,
2009-11-18, 01:06:04,VALID,998.448,VALID,0,VALID,91.853,VALID,0,VALID,24.1305,VALID,201,VALID,0.775781,
2009-11-18, 01:07:04,VALID,998.452,VALID,0,VALID,91.7996,VALID,0,VALID,24.1092,VALID,190,VALID,0.892187,
2009-11-18, 01:08:04,VALID,998.435,VALID,0,VALID,91.8988,VALID,0,VALID,24.1696,VALID,192,VALID,0.711719,
2009-11-18, 01:09:04,VALID,998.44,VALID,0,VALID,91.8606,VALID,0.112286,VALID,24.1482,VALID,199,VALID,0.576953,
2009-11-18, 01:10:04,VALID,998.451,VALID,0,VALID,91.7614,VALID,0,VALID,24.1696,VALID,191,VALID,0.541016,
2009-11-18, 01:11:04,VALID,998.417,VALID,0,VALID,91.7614,VALID,0,VALID,24.1482,VALID,172,VALID,0.719531,
2009-11-18, 01:12:04,VALID,998.424,VALID,0,VALID,91.8454,VALID,0,VALID,24.1482,VALID,190,VALID,0.502344,
2009-11-18, 01:13:04,VALID,998.446,VALID,0,VALID,91.8988,VALID,0.112286,VALID,24.1482,VALID,190,VALID,0.359375,
2009-11-18, 01:14:04,VALID,998.404,VALID,0,VALID,91.8988,VALID,0,VALID,24.1482,VALID,229,VALID,0.548047,
2009-11-18, 01:15:04,VALID,998.422,VALID,0,VALID,91.8148,VALID,0,VALID,24.15,VALID,229,VALID,0.195313,
2009-11-18, 01:16:04,VALID,998.399,VALID,0,VALID,91.6317,VALID,0,VALID,24.15,VALID,229,VALID,0.55,
2009-11-18, 01:17:04,VALID,998.402,VALID,0,VALID,91.6088,VALID,0,VALID,24.1305,VALID,229,VALID,0.00117188,
2009-11-18, 01:18:04,VALID,998.407,VALID,0,VALID,91.7614,VALID,0,VALID,24.1305,VALID,229,VALID,0.327344,
2009-11-18, 01:19:04,VALID,998.415,VALID,0,VALID,91.6775,VALID,0,VALID,24.1305,VALID,229,VALID,0.173828,
2009-11-18, 01:20:04,VALID,998.425,VALID,0,VALID,91.8148,VALID,0,VALID,24.1482,VALID,229,VALID,0.210938,
2009-11-18, 01:21:04,VALID,998.423,VALID,0,VALID,91.9217,VALID,0,VALID,24.15,VALID,229,VALID,0.289844,
2009-11-18, 01:22:04,VALID,998.404,VALID,0,VALID,91.8606,VALID,0,VALID,24.1305,VALID,247,VALID,0.287109,
2009-11-18, 01:23:04,VALID,998.445,VALID,0,VALID,91.998,VALID,0,VALID,24.1287,VALID,247,VALID,0.205859,
2009-11-18, 01:24:04,VALID,998.427,VALID,0,VALID,91.9369,VALID,0,VALID,24.1092,VALID,246,VALID,0.888672,
2009-11-18, 01:25:04,VALID,998.406,VALID,0,VALID,91.8835,VALID,0,VALID,24.15,VALID,237,VALID,0.70625,
2009-11-18, 01:26:04,VALID,998.402,VALID,0,VALID,91.8377,VALID,0,VALID,24.1092,VALID,224,VALID,0.551172,
2009-11-18, 01:27:04,VALID,998.418,VALID,0,VALID,91.8454,VALID,0,VALID,24.1305,VALID,229,VALID,0.422266,
2009-11-18, 01:28:04,VALID,998.407,VALID,0,VALID,91.8606,VALID,0,VALID,24.111,VALID,229,VALID,0.35625,
2009-11-18, 01:29:04,VALID,998.406,VALID,0,VALID,91.8072,VALID,0,VALID,24.0897,VALID,226,VALID,0.452734,
2009-11-18, 01:30:04,VALID,998.425,VALID,0,VALID,91.7767,VALID,0,VALID,24.111,VALID,215,VALID,0.494141,
2009-11-18, 01:31:04,VALID,998.411,VALID,0,VALID,91.7462,VALID,0,VALID,24.0915,VALID,211,VALID,0.378516,
2009-11-18, 01:32:04,VALID,998.42,VALID,0,VALID,91.647,VALID,0,VALID,24.0915,VALID,205,VALID,0.465625,
2009-11-18, 01:33:04,VALID,998.428,VALID,0,VALID,91.6012,VALID,0,VALID,24.0701,VALID,204,VALID,0.392578,
2009-11-18, 01:34:04,VALID,998.436,VALID,0,VALID,91.7614,VALID,0,VALID,24.111,VALID,204,VALID,0.502734,
2009-11-18, 01:35:04,VALID,998.445,VALID,0,VALID,91.6851,VALID,0,VALID,24.1092,VALID,215,VALID,0.451172,
2009-11-18, 01:36:04,VALID,998.441,VALID,0,VALID,91.6775,VALID,0,VALID,24.1092,VALID,215,VALID,0.266406,
2009-11-18, 01:37:04,VALID,998.458,VALID,0,VALID,91.6394,VALID,0,VALID,24.1092,VALID,214,VALID,0.335547,
2009-11-18, 01:38:04,VALID,998.461,VALID,0,VALID,91.7157,VALID,0,VALID,24.1482,VALID,210,VALID,0.658594,
2009-11-18, 01:39:04,VALID,998.468,VALID,0,VALID,91.441,VALID,0.112286,VALID,24.1482,VALID,214,VALID,0.860156,
2009-11-18, 01:40:04,VALID,998.5,VALID,0,VALID,91.4486,VALID,0,VALID,24.1891,VALID,230,VALID,0.00585938,
2009-11-18, 01:41:04,VALID,998.503,VALID,0,VALID,91.441,VALID,0,VALID,24.1872,VALID,232,VALID,0.385156,
2009-11-18, 01:42:04,VALID,998.528,VALID,0,VALID,91.502,VALID,0,VALID,24.2086,VALID,232,VALID,0.59375,
2009-11-18, 01:43:04,VALID,998.54,VALID,0,VALID,91.3342,VALID,0.112286,VALID,24.1872,VALID,213,VALID,0.926953,
2009-11-18, 01:44:04,VALID,998.514,VALID,0,VALID,91.1968,VALID,0.112286,VALID,24.2086,VALID,200,VALID,1.02148,
2009-11-18, 01:45:04,VALID,998.556,VALID,0,VALID,91.1587,VALID,0,VALID,24.2104,VALID,214,VALID,0.894531,
2009-11-18, 01:46:04,VALID,998.563,VALID,0,VALID,91.1663,VALID,0,VALID,24.1696,VALID,208,VALID,1.05156,
2009-11-18, 01:47:04,VALID,998.537,VALID,0,VALID,91.0061,VALID,0,VALID,24.1891,VALID,243,VALID,0.990234,
2009-11-18, 01:48:04,VALID,998.547,VALID,0,VALID,90.9603,VALID,0,VALID,24.2104,VALID,255,VALID,0.889063,
2009-11-18, 01:49:04,VALID,998.554,VALID,0,VALID,91.1206,VALID,0,VALID,24.2086,VALID,219,VALID,0.598437,
2009-11-18, 01:50:04,VALID,998.531,VALID,0,VALID,91.1968,VALID,0,VALID,24.2104,VALID,210,VALID,0.901563,
2009-11-18, 01:51:04,VALID,998.532,VALID,0,VALID,91.0671,VALID,0,VALID,24.2104,VALID,218,VALID,1.26836,
2009-11-18, 01:52:04,VALID,998.556,VALID,0,VALID,91.0366,VALID,0,VALID,24.2299,VALID,221,VALID,0.810938,
2009-11-18, 01:53:04,VALID,998.536,VALID,0,VALID,91.0977,VALID,0,VALID,24.2086,VALID,226,VALID,0.348828,
2009-11-18, 01:54:04,VALID,998.513,VALID,0,VALID,91.174,VALID,0,VALID,24.2086,VALID,225,VALID,0.327344,
2009-11-18, 01:55:04,VALID,998.527,VALID,0,VALID,91.2426,VALID,0,VALID,24.2086,VALID,225,VALID,0,
2009-11-18, 01:56:04,VALID,998.492,VALID,0,VALID,91.2503,VALID,0,VALID,24.2086,VALID,225,VALID,0.114063,
2009-11-18, 01:57:04,VALID,998.476,VALID,0,VALID,91.1053,VALID,0,VALID,24.1891,VALID,216,VALID,1.08203,
2009-11-18, 01:58:04,VALID,998.49,VALID,0,VALID,90.9451,VALID,0,VALID,24.2104,VALID,246,VALID,1.03359,
2009-11-18, 01:59:04,VALID,998.52,VALID,0,VALID,90.8764,VALID,0,VALID,24.2495,VALID,240,VALID,0.705469,
2009-11-18, 02:00:04,VALID,998.502,VALID,0,VALID,90.8917,VALID,0,VALID,24.2476,VALID,253,VALID,0.933203,
2009-11-18, 02:01:04,VALID,998.531,VALID,0,VALID,90.8764,VALID,0,VALID,24.2458,VALID,208,VALID,1.00859,
2009-11-18, 02:02:04,VALID,998.568,VALID,0,VALID,90.9832,VALID,0,VALID,24.2671,VALID,219,VALID,1.2375,
2009-11-18, 02:03:04,VALID,998.566,VALID,0,VALID,90.1821,VALID,0,VALID,24.2067,VALID,256,VALID,3.53789,
2009-11-18, 02:04:04,VALID,998.599,VALID,0.5,VALID,89.5489,VALID,0,VALID,24.1891,VALID,254,VALID,2.31875,
2009-11-18, 02:05:04,VALID,998.628,VALID,0,VALID,89.4954,VALID,0,VALID,24.1287,VALID,264,VALID,1.71055,
2009-11-18, 02:06:04,VALID,998.679,VALID,0,VALID,89.4649,VALID,0,VALID,24.111,VALID,241,VALID,1.33477,
2009-11-18, 02:07:04,VALID,998.648,VALID,0,VALID,89.2666,VALID,0.112286,VALID,24.0311,VALID,240,VALID,1.66953,
2009-11-18, 02:08:04,VALID,998.674,VALID,0,VALID,89.0987,VALID,0,VALID,24.0134,VALID,256,VALID,2.84297,
2009-11-18, 02:09:04,VALID,998.697,VALID,0,VALID,89.4115,VALID,0,VALID,23.9939,VALID,249,VALID,1.54258,
2009-11-18, 02:10:04,VALID,998.695,VALID,0,VALID,89.5717,VALID,0,VALID,23.9336,VALID,268,VALID,2.23945,
2009-11-18, 02:11:04,VALID,998.678,VALID,0,VALID,89.8388,VALID,0,VALID,23.8945,VALID,259,VALID,1.07695,
2009-11-18, 02:12:04,VALID,998.686,VALID,0,VALID,90.0295,VALID,0,VALID,23.8768,VALID,228,VALID,1.54258,
2009-11-18, 02:13:04,VALID,998.707,VALID,0,VALID,90.0906,VALID,0,VALID,23.836,VALID,244,VALID,1.34102,
2009-11-18, 02:14:04,VALID,998.718,VALID,0,VALID,90.1134,VALID,0,VALID,23.8378,VALID,241,VALID,2.04844,
2009-11-18, 02:15:04,VALID,998.732,VALID,0,VALID,89.9837,VALID,0,VALID,23.7988,VALID,268,VALID,3.42734,
2009-11-18, 02:16:04,VALID,998.739,VALID,0,VALID,90.3957,VALID,0,VALID,23.7597,VALID,270,VALID,2.05508,
2009-11-18, 02:17:04,VALID,998.766,VALID,0,VALID,90.5331,VALID,0,VALID,23.7207,VALID,261,VALID,1.91016,
2009-11-18, 02:18:04,VALID,998.789,VALID,0.5,VALID,90.7162,VALID,0,VALID,23.6817,VALID,259,VALID,2.15273,
2009-11-18, 02:19:04,VALID,998.771,VALID,0,VALID,90.9832,VALID,0,VALID,23.6427,VALID,250,VALID,2.28711,
2009-11-18, 02:20:04,VALID,998.787,VALID,0.5,VALID,91.3342,VALID,0,VALID,23.5841,VALID,243,VALID,0.965625,
2009-11-18, 02:21:04,VALID,998.789,VALID,0,VALID,91.6088,VALID,0,VALID,23.5646,VALID,256,VALID,1.63125,
2009-11-18, 02:22:04,VALID,998.788,VALID,0.5,VALID,91.8301,VALID,0,VALID,23.5043,VALID,225,VALID,1.69297,
2009-11-18, 02:23:04,VALID,998.758,VALID,0.5,VALID,92.0514,VALID,0,VALID,23.4848,VALID,219,VALID,1.42969,
2009-11-18, 02:24:04,VALID,998.723,VALID,1,VALID,92.2574,VALID,0,VALID,23.4458,VALID,215,VALID,1.11172,
2009-11-18, 02:25:04,VALID,998.777,VALID,0.5,VALID,92.4252,VALID,0,VALID,23.4263,VALID,257,VALID,0.907812,
2009-11-18, 02:26:04,VALID,998.732,VALID,0.5,VALID,92.532,VALID,0,VALID,23.389,VALID,224,VALID,2.65898,
2009-11-18, 02:27:04,VALID,998.743,VALID,0.5,VALID,92.677,VALID,0,VALID,23.3482,VALID,258,VALID,0.901172,
2009-11-18, 02:28:04,VALID,998.707,VALID,1,VALID,92.7914,VALID,0,VALID,23.3305,VALID,252,VALID,1.27852,
2009-11-18, 02:29:04,VALID,998.649,VALID,0.5,VALID,92.9059,VALID,0,VALID,23.311,VALID,239,VALID,1.00234,
2009-11-18, 02:30:04,VALID,998.608,VALID,0.5,VALID,92.9898,VALID,0,VALID,23.311,VALID,242,VALID,0.453906,
2009-11-18, 02:31:04,VALID,998.566,VALID,0.5,VALID,93.0814,VALID,0,VALID,23.2915,VALID,242,VALID,0.164063,
2009-11-18, 02:32:04,VALID,998.57,VALID,0.5,VALID,93.1729,VALID,0,VALID,23.2719,VALID,299,VALID,0.513672,
2009-11-18, 02:33:04,VALID,998.554,VALID,0,VALID,93.2034,VALID,0,VALID,23.2719,VALID,300,VALID,0.247656,
2009-11-18, 02:34:04,VALID,998.536,VALID,0.5,VALID,93.2645,VALID,0.112286,VALID,23.2702,VALID,300,VALID,0,
2009-11-18, 02:35:04,VALID,998.5,VALID,0.5,VALID,93.3026,VALID,0,VALID,23.2915,VALID,256,VALID,0.223438,
2009-11-18, 02:36:04,VALID,998.465,VALID,0,VALID,93.3637,VALID,0,VALID,23.2719,VALID,256,VALID,0,
2009-11-18, 02:37:04,VALID,998.429,VALID,0.5,VALID,93.4171,VALID,0,VALID,23.2719,VALID,256,VALID,0.121875,
2009-11-18, 02:38:04,VALID,998.414,VALID,0.5,VALID,93.4552,VALID,0,VALID,23.2719,VALID,218,VALID,0.111328,
2009-11-18, 02:39:04,VALID,998.357,VALID,0,VALID,93.4934,VALID,0,VALID,23.2507,VALID,204,VALID,0.660547,
2009-11-18, 02:40:04,VALID,998.329,VALID,0,VALID,93.5086,VALID,0,VALID,23.2507,VALID,230,VALID,0.836719,
2009-11-18, 02:41:04,VALID,998.278,VALID,0,VALID,93.5239,VALID,0,VALID,23.2329,VALID,224,VALID,0.694141,
2009-11-18, 02:42:04,VALID,998.277,VALID,0.5,VALID,93.5163,VALID,0,VALID,23.1726,VALID,224,VALID,0.769531,
2009-11-18, 02:43:04,VALID,998.211,VALID,0,VALID,93.5391,VALID,0,VALID,23.1549,VALID,176,VALID,0.999219,
2009-11-18, 02:44:04,VALID,998.197,VALID,0,VALID,93.5697,VALID,0,VALID,23.1549,VALID,185,VALID,1.54219,
2009-11-18, 02:45:04,VALID,998.181,VALID,0,VALID,93.5926,VALID,0,VALID,23.1566,VALID,200,VALID,0.715625,
2009-11-18, 02:46:04,VALID,998.157,VALID,0,VALID,93.5849,VALID,0,VALID,23.1354,VALID,156,VALID,1.27148,
2009-11-18, 02:47:04,VALID,998.134,VALID,0,VALID,93.6002,VALID,0,VALID,23.1371,VALID,160,VALID,0.561719,
2009-11-18, 02:48:04,VALID,998.151,VALID,0.5,VALID,93.6078,VALID,0,VALID,23.1159,VALID,169,VALID,1.20703,
2009-11-18, 02:49:04,VALID,998.156,VALID,0,VALID,93.5849,VALID,0,VALID,23.0786,VALID,203,VALID,1.08086,
2009-11-18, 02:50:04,VALID,998.187,VALID,0,VALID,93.5773,VALID,0,VALID,23.0591,VALID,185,VALID,0.855859,
2009-11-18, 02:51:04,VALID,998.192,VALID,0,VALID,93.6231,VALID,0,VALID,23.0573,VALID,173,VALID,1.20977,
2009-11-18, 02:52:04,VALID,998.211,VALID,0,VALID,93.6078,VALID,0,VALID,23.0378,VALID,180,VALID,1.2793,
2009-11-18, 02:53:04,VALID,998.2,VALID,0,VALID,93.646,VALID,0,VALID,23.0183,VALID,188,VALID,1.1082,
2009-11-18, 02:54:04,VALID,998.171,VALID,0,VALID,93.707,VALID,0,VALID,23.0786,VALID,163,VALID,1.24648,
2009-11-18, 02:55:04,VALID,998.147,VALID,0,VALID,93.7528,VALID,0,VALID,23.1159,VALID,176,VALID,1.62969,
2009-11-18, 02:56:04,VALID,998.13,VALID,0,VALID,93.6688,VALID,0,VALID,23.0573,VALID,195,VALID,1.77656,
2009-11-18, 02:57:04,VALID,998.098,VALID,0,VALID,93.6765,VALID,0,VALID,23.0591,VALID,203,VALID,1.33672,
2009-11-18, 02:58:04,VALID,998.068,VALID,0,VALID,93.6994,VALID,0,VALID,23.0769,VALID,206,VALID,1.03828,
2009-11-18, 02:59:04,VALID,998.047,VALID,0,VALID,93.7223,VALID,0,VALID,23.0981,VALID,205,VALID,0.616406,
2009-11-18, 03:00:04,VALID,998.015,VALID,0,VALID,93.7223,VALID,0,VALID,23.0981,VALID,206,VALID,0.779297,
2009-11-18, 03:01:04,VALID,998.003,VALID,0,VALID,93.7299,VALID,0,VALID,23.0573,VALID,197,VALID,0.925391,
2009-11-18, 03:02:04,VALID,998.008,VALID,0.5,VALID,93.6994,VALID,0,VALID,23.0573,VALID,219,VALID,0.751953,
2009-11-18, 03:03:04,VALID,997.987,VALID,0,VALID,93.7299,VALID,0,VALID,23.0573,VALID,227,VALID,0.442187,
2009-11-18, 03:04:04,VALID,997.987,VALID,0,VALID,93.7223,VALID,0,VALID,23.0769,VALID,222,VALID,1.175,
2009-11-18, 03:05:04,VALID,997.974,VALID,0,VALID,93.7146,VALID,0,VALID,23.0378,VALID,218,VALID,1.28047,
2009-11-18, 03:06:04,VALID,997.977,VALID,0,VALID,93.7375,VALID,0,VALID,23.0378,VALID,214,VALID,1.06484,
2009-11-18, 03:07:04,VALID,997.97,VALID,0,VALID,93.7604,VALID,0,VALID,23.0769,VALID,195,VALID,1.23125,
2009-11-18, 03:08:04,VALID,997.961,VALID,0,VALID,93.7375,VALID,0,VALID,23.0378,VALID,189,VALID,0.994141,
2009-11-18, 03:09:04,VALID,997.945,VALID,0,VALID,93.7451,VALID,0,VALID,23.0573,VALID,197,VALID,0.499609,
2009-11-18, 03:10:04,VALID,997.92,VALID,0,VALID,93.768,VALID,0,VALID,23.0981,VALID,223,VALID,1.01094,
2009-11-18, 03:11:04,VALID,997.939,VALID,0,VALID,93.7985,VALID,0,VALID,23.0981,VALID,217,VALID,0.667969,
2009-11-18, 03:12:04,VALID,997.922,VALID,0,VALID,93.8138,VALID,0,VALID,23.0964,VALID,193,VALID,1.01875,
2009-11-18, 03:13:04,VALID,997.912,VALID,0,VALID,93.7909,VALID,0,VALID,23.0769,VALID,191,VALID,1.11563,
2009-11-18, 03:14:04,VALID,997.9,VALID,0.5,VALID,93.7985,VALID,0,VALID,23.0981,VALID,202,VALID,0.710547,
2009-11-18, 03:15:04,VALID,997.872,VALID,0,VALID,93.8062,VALID,0,VALID,23.1159,VALID,172,VALID,0.957812,
2009-11-18, 03:16:04,VALID,997.873,VALID,0,VALID,93.8367,VALID,0,VALID,23.1159,VALID,175,VALID,0.915234,
2009-11-18, 03:17:04,VALID,997.847,VALID,0,VALID,93.8367,VALID,0,VALID,23.1354,VALID,193,VALID,0.879687,
2009-11-18, 03:18:04,VALID,997.816,VALID,0,VALID,93.8367,VALID,0,VALID,23.1354,VALID,180,VALID,1.0832,
2009-11-18, 03:19:04,VALID,997.86,VALID,0,VALID,93.8291,VALID,0,VALID,23.1141,VALID,198,VALID,0.689453,
2009-11-18, 03:20:04,VALID,997.821,VALID,0,VALID,93.852,VALID,0,VALID,23.1549,VALID,191,VALID,1.43789,
2009-11-18, 03:21:04,VALID,997.807,VALID,0,VALID,93.8977,VALID,0,VALID,23.1939,VALID,174,VALID,1.35625,
2009-11-18, 03:22:04,VALID,997.798,VALID,0,VALID,93.8748,VALID,0,VALID,23.1921,VALID,159,VALID,1.5293,
2009-11-18, 03:23:04,VALID,997.799,VALID,0,VALID,93.8291,VALID,0.112286,VALID,23.2134,VALID,161,VALID,1.79141,
2009-11-18, 03:24:04,VALID,997.792,VALID,0,VALID,93.8672,VALID,0,VALID,23.1939,VALID,163,VALID,1.61367,
2009-11-18, 03:25:04,VALID,997.793,VALID,0,VALID,93.8672,VALID,0.112286,VALID,23.2134,VALID,160,VALID,1.51406,
2009-11-18, 03:26:04,VALID,997.766,VALID,0,VALID,93.8748,VALID,0,VALID,23.2134,VALID,155,VALID,1.22812,
2009-11-18, 03:27:04,VALID,997.788,VALID,0,VALID,93.8596,VALID,0,VALID,23.2134,VALID,146,VALID,1.51289,
2009-11-18, 03:28:04,VALID,997.792,VALID,0,VALID,93.8748,VALID,0,VALID,23.2329,VALID,167,VALID,1.36289,
2009-11-18, 03:29:04,VALID,997.777,VALID,0,VALID,93.8596,VALID,0,VALID,23.2117,VALID,161,VALID,1.19844,
2009-11-18, 03:30:04,VALID,997.764,VALID,0,VALID,93.8596,VALID,0,VALID,23.2524,VALID,152,VALID,1.39297,
2009-11-18, 03:31:04,VALID,997.744,VALID,0,VALID,93.852,VALID,0,VALID,23.2329,VALID,158,VALID,1.33828,
2009-11-18, 03:32:04,VALID,997.725,VALID,0,VALID,93.852,VALID,0,VALID,23.2117,VALID,159,VALID,1.10508,
2009-11-18, 03:33:04,VALID,997.742,VALID,0,VALID,93.8443,VALID,0.112286,VALID,23.2524,VALID,148,VALID,0.832422,
2009-11-18, 03:34:04,VALID,997.729,VALID,0,VALID,93.8596,VALID,0,VALID,23.2524,VALID,148,VALID,1.10273,
2009-11-18, 03:35:04,VALID,997.738,VALID,0,VALID,93.8443,VALID,0,VALID,23.2117,VALID,149,VALID,1.24375,
2009-11-18, 03:36:04,VALID,997.749,VALID,0,VALID,93.7985,VALID,0.112286,VALID,23.1921,VALID,142,VALID,1.43594,
2009-11-18, 03:37:04,VALID,997.727,VALID,0,VALID,93.8443,VALID,0,VALID,23.2117,VALID,141,VALID,0.941406,
2009-11-18, 03:38:04,VALID,997.746,VALID,0,VALID,93.8443,VALID,0,VALID,23.2524,VALID,146,VALID,1.01289,
2009-11-18, 03:39:04,VALID,997.738,VALID,0,VALID,93.8596,VALID,0,VALID,23.2312,VALID,151,VALID,1.20547,
2009-11-18, 03:40:04,VALID,997.753,VALID,0,VALID,93.8138,VALID,0,VALID,23.2329,VALID,139,VALID,1.34648,
2009-11-18, 03:41:04,VALID,997.74,VALID,0,VALID,93.8138,VALID,0,VALID,23.2329,VALID,137,VALID,1.45117,
2009-11-18, 03:42:04,VALID,997.698,VALID,0,VALID,93.8214,VALID,0,VALID,23.2524,VALID,152,VALID,1.40898,
2009-11-18, 03:43:04,VALID,997.72,VALID,0,VALID,93.7833,VALID,0,VALID,23.2312,VALID,147,VALID,1.48906,